TimeCET,TemperatureF,Dew PointF,Humidity,Sea Level PressureIn,VisibilityMPH,Wind Direction,Wind SpeedMPH,Gust SpeedMPH,PrecipitationIn,Events,Conditions,WindDirDegrees,DateUTC
12:00 AM,35,31,78,30.07,14,South,4.5,,,,Partly Cloudy,190,2014-01-24 23:00:00
12:25 AM,33.8,30.2,87,30.06,6.2,South,4.6,-,N/A,,Mostly Cloudy,180,2014-01-24 23:25:00
12:55 AM,33.8,30.2,87,30.06,6.2,South,3.5,-,N/A,,Partly Cloudy,190,2014-01-24 23:55:00
1:00 AM,34,30,79,30.07,14,South,4.5,,,,Partly Cloudy,190,2014-01-25 00:00:00
1:25 AM,33.8,30.2,87,30.06,6.2,SSE,4.6,-,N/A,,Partly Cloudy,160,2014-01-25 00:25:00
1:55 AM,33.8,30.2,87,30.06,6.2,SSE,4.6,-,N/A,,Overcast,160,2014-01-25 00:55:00
2:00 AM,33,29,82,30.08,14,SSE,4.5,,,,Overcast,160,2014-01-25 01:00:00
2:25 AM,32.0,30.2,93,30.06,6.2,SSE,3.5,-,N/A,,Overcast,150,2014-01-25 01:25:00
2:55 AM,33.8,30.2,87,30.06,6.2,SSE,4.6,-,N/A,,Overcast,150,2014-01-25 01:55:00
3:00 AM,33,30,83,30.09,11,South,4.5,,,,Overcast,170,2014-01-25 02:00:00
3:25 AM,32.0,30.2,93,30.06,6.2,SSE,3.5,-,N/A,,Overcast,160,2014-01-25 02:25:00
3:55 AM,33.8,30.2,87,30.06,6.2,SSE,4.6,-,N/A,,Overcast,150,2014-01-25 02:55:00
4:00 AM,33,30,83,30.08,12,SE,4.5,,,,Overcast,140,2014-01-25 03:00:00
4:25 AM,33.8,30.2,87,30.06,6.2,SSE,4.6,-,N/A,,Overcast,150,2014-01-25 03:25:00
4:55 AM,33.8,30.2,87,30.06,6.2,SSE,6.9,-,N/A,,Overcast,150,2014-01-25 03:55:00
5:00 AM,34,30,80,30.08,14,SSE,6.7,,,,Mostly Cloudy,150,2014-01-25 04:00:00
5:25 AM,33.8,30.2,87,30.06,6.2,SSE,6.9,-,N/A,,Mostly Cloudy,150,2014-01-25 04:25:00
5:55 AM,35.6,30.2,81,30.06,6.2,SSE,6.9,-,N/A,,Mostly Cloudy,150,2014-01-25 04:55:00
6:00 AM,35,30,75,30.06,14,SSE,6.7,,,,Overcast,150,2014-01-25 05:00:00
6:25 AM,35.6,30.2,81,30.06,6.2,SSE,4.6,-,N/A,,Mostly Cloudy,150,2014-01-25 05:25:00
6:55 AM,35.6,30.2,81,30.04,6.2,SSE,6.9,-,N/A,,Overcast,150,2014-01-25 05:55:00
7:00 AM,35,30,77,30.06,13,SSE,6.7,,,,Partly Cloudy,150,2014-01-25 06:00:00
7:25 AM,35.6,30.2,81,30.04,6.2,SSE,5.8,-,N/A,,Overcast,150,2014-01-25 06:25:00
7:55 AM,35.6,30.2,81,30.04,6.2,SSE,5.8,-,N/A,,Mostly Cloudy,150,2014-01-25 06:55:00
8:00 AM,35,30,75,30.06,12,SSE,6.7,,,,Mostly Cloudy,160,2014-01-25 07:00:00
8:25 AM,35.6,30.2,81,30.04,6.2,South,6.9,-,N/A,,Mostly Cloudy,170,2014-01-25 07:25:00
8:55 AM,35.6,30.2,81,30.04,6.2,South,6.9,-,N/A,,Overcast,170,2014-01-25 07:55:00
9:00 AM,36,30,72,30.07,11,South,6.7,,,,Scattered Clouds,170,2014-01-25 08:00:00
9:25 AM,35.6,30.2,81,30.06,6.2,SSE,5.8,-,N/A,,Overcast,160,2014-01-25 08:25:00
9:55 AM,35.6,30.2,81,30.06,6.2,South,6.9,-,N/A,,Mostly Cloudy,170,2014-01-25 08:55:00
10:00 AM,36,31,75,30.07,12,South,6.7,,,,Mostly Cloudy,170,2014-01-25 09:00:00
10:25 AM,37.4,32.0,81,30.06,6.2,South,8.1,-,N/A,,Overcast,170,2014-01-25 09:25:00
10:55 AM,37.4,32.0,81,30.04,6.2,South,9.2,-,N/A,,Overcast,170,2014-01-25 09:55:00
11:00 AM,38,32,70,30.05,12,SSE,8.9,,,,Mostly Cloudy,160,2014-01-25 10:00:00
11:25 AM,39.2,33.8,81,30.04,6.2,South,8.1,-,N/A,,Overcast,170,2014-01-25 10:25:00
11:55 AM,39.2,32.0,75,30.04,6.2,South,10.4,-,N/A,,Overcast,180,2014-01-25 10:55:00
12:00 PM,40,33,68,30.05,16,South,11.2,,,,Overcast,190,2014-01-25 11:00:00
12:25 PM,39.2,33.8,81,30.04,6.2,South,12.7,-,N/A,,Overcast,180,2014-01-25 11:25:00
12:55 PM,41.0,33.8,76,30.01,6.2,South,11.5,-,N/A,,Overcast,190,2014-01-25 11:55:00
1:00 PM,41,34,66,30.03,18,SSW,11.2,,,,Partly Cloudy,200,2014-01-25 12:00:00
1:25 PM,41.0,33.8,76,30.01,6.2,SSW,11.5,-,N/A,,Overcast,200,2014-01-25 12:25:00
1:55 PM,41.0,33.8,76,30.01,6.2,SSW,10.4,-,N/A,,Overcast,210,2014-01-25 12:55:00
2:00 PM,41,33,65,30.01,15,SSW,11.2,,,,Overcast,210,2014-01-25 13:00:00
2:25 PM,41.0,33.8,76,29.98,6.2,South,13.8,-,N/A,,Overcast,190,2014-01-25 13:25:00
2:39 PM,41.0,33.8,76,29.98,6.2,South,12.7,-,N/A,,Overcast,180,2014-01-25 13:39:00
2:55 PM,41.0,33.8,76,29.95,6.2,South,12.7,-,N/A,,Overcast,180,2014-01-25 13:55:00
3:00 PM,41,34,66,29.94,17,South,13.4,,,,Overcast,180,2014-01-25 14:00:00
3:25 PM,41.0,33.8,76,29.92,6.2,South,12.7,-,N/A,,Overcast,180,2014-01-25 14:25:00
3:55 PM,41.0,33.8,76,29.92,6.2,South,13.8,-,N/A,,Overcast,180,2014-01-25 14:55:00
4:00 PM,41,34,66,29.95,19,South,13.4,,,,Overcast,190,2014-01-25 15:00:00
4:25 PM,41.0,33.8,76,29.92,6.2,SSW,13.8,-,N/A,,Overcast,200,2014-01-25 15:25:00
4:55 PM,41.0,33.8,76,29.89,6.2,South,15.0,-,N/A,,Overcast,190,2014-01-25 15:55:00
5:00 PM,41,33,64,29.90,22,South,15.7,,,,Overcast,190,2014-01-25 16:00:00
5:25 PM,41.0,33.8,76,29.86,6.2,South,15.0,-,N/A,,Overcast,180,2014-01-25 16:25:00
5:55 PM,41.0,33.8,76,29.83,6.2,South,15.0,-,N/A,,Overcast,180,2014-01-25 16:55:00
6:00 PM,41,33,66,29.85,25,South,15.7,,,,Overcast,180,2014-01-25 17:00:00
6:25 PM,41.0,33.8,76,29.83,6.2,South,15.0,-,N/A,,Overcast,190,2014-01-25 17:25:00
6:44 PM,41.0,33.8,76,29.80,6.2,South,16.1,-,N/A,,Overcast,180,2014-01-25 17:44:00
6:55 PM,41.0,33.8,76,29.80,6.2,South,16.1,-,N/A,,Overcast,190,2014-01-25 17:55:00
7:00 PM,41,35,73,29.78,19,South,15.7,,,,Partly Cloudy,190,2014-01-25 18:00:00
7:25 PM,41.0,35.6,81,29.74,6.2,South,18.4,-,N/A,,Overcast,180,2014-01-25 18:25:00
7:55 PM,41.0,37.4,87,29.74,6.2,SSW,16.1,-,N/A,,Overcast,200,2014-01-25 18:55:00
8:00 PM,41,37,81,29.74,11,South,15.7,,,Rain,Light Rain Showers,190,2014-01-25 19:00:00
8:13 PM,41.0,37.4,87,29.71,3.7,South,16.1,-,N/A,Rain,Light Rain,190,2014-01-25 19:13:00
8:25 PM,41.0,37.4,87,29.68,6.2,South,16.1,-,N/A,,Overcast,190,2014-01-25 19:25:00
8:55 PM,41.0,39.2,93,29.68,5.6,South,18.4,33.4,N/A,Rain,Rain Showers,190,2014-01-25 19:55:00
8:59 PM,41.0,39.2,93,29.68,-9999.0,SW,17.3,-,N/A,Rain,Rain Showers,220,2014-01-25 19:59:00
9:00 PM,41,39,92,29.70,3,SW,15.7,,,Rain,Rain Showers,220,2014-01-25 20:00:00
9:16 PM,42.8,39.2,87,29.68,6.2,WSW,17.3,28.8,N/A,Rain,Rain Showers,250,2014-01-25 20:16:00
9:25 PM,42.8,39.2,87,29.68,5.6,West,13.8,-,N/A,Rain,Rain,270,2014-01-25 20:25:00
9:34 PM,41.0,39.2,93,29.68,3.7,West,11.5,-,N/A,Rain,Rain Showers,270,2014-01-25 20:34:00
9:55 PM,41.0,39.2,93,29.71,6.2,WNW,17.3,-,N/A,Rain,Light Rain Showers,290,2014-01-25 20:55:00
10:00 PM,42,39,84,29.71,5,West,15.7,,,Rain,Rain,280,2014-01-25 21:00:00
10:10 PM,41.0,37.4,87,29.68,3.7,West,24.2,40.3,N/A,Rain,Rain Showers,280,2014-01-25 21:10:00
10:18 PM,41.0,37.4,87,29.71,1.7,WNW,27.6,-,N/A,Rain,Light Rain Showers,300,2014-01-25 21:18:00
10:25 PM,39.2,37.4,93,29.71,-9999.0,WNW,26.5,41.4,N/A,,Mostly Cloudy,300,2014-01-25 21:25:00
10:29 PM,39.2,37.4,93,29.71,6.2,WNW,24.2,41.4,N/A,Rain,Light Rain Showers,300,2014-01-25 21:29:00
10:33 PM,41.0,37.4,87,29.71,6.2,WNW,21.9,-,N/A,Rain,Light Rain,300,2014-01-25 21:33:00
10:37 PM,41.0,37.4,87,29.71,6.2,WNW,24.2,41.4,N/A,Rain,Light Rain,290,2014-01-25 21:37:00
10:50 PM,42.8,37.4,81,29.68,6.2,WNW,23.0,36.8,N/A,Rain,Light Rain,290,2014-01-25 21:50:00
10:55 PM,42.8,37.4,81,29.71,6.2,West,19.6,-,N/A,,Overcast,280,2014-01-25 21:55:00
11:00 PM,43,38,76,29.72,12,West,20.1,,,Rain,Rain,280,2014-01-25 22:00:00
11:25 PM,42.8,37.4,81,29.71,6.2,West,24.2,-,N/A,Rain,Light Rain,280,2014-01-25 22:25:00
11:33 PM,42.8,37.4,81,29.71,6.2,West,21.9,-,N/A,,Mostly Cloudy,280,2014-01-25 22:33:00
11:55 PM,42.8,37.4,81,29.71,6.2,WNW,25.3,-,N/A,,Mostly Cloudy,290,2014-01-25 22:55:00